Home   Weather   Shanghai   Past weeks
Flag for China

Past Weather in Shanghai, Shanghai Municipality, China — Yesterday and Last 2 Weeks

Now
48 °F

Scattered clouds.


Feels Like: 42 °F
Forecast: 51 / 43 °F
Wind: 15 mph from North

Location: Shanghai Hongqiao Airport

Current Time: Mar 28, 2020 at 5:57:07 pm

Latest Report: Mar 28, 2020 at 5:00 pm


Visibility: N/A

Pressure: 30.21 "Hg

Humidity: 66%

Dew Point: 37 °F

Location of ShanghaiLocation

Past Weather in Shanghai — Graph

°F

Shanghai Temperature Yesterday

Maximum temperature yesterday: 68 °F (at 12:00 am)
Minimum temperature yesterday: 46 °F (at 11:00 pm)
Average temperature yesterday: 53 °F

High & Low Weather Summary for the Past Weeks

 TemperatureHumidityPressure
High81 °F (Mar 21, 12:30 pm)100% (Mar 21, 11:00 pm)30.30 "Hg (Mar 21, 11:00 pm)
Low41 °F (Mar 28, 9:00 am)18% (Mar 19, 8:00 pm)29.77 "Hg (Mar 21, 3:00 pm)
Average59 °F60%30.05 "Hg
* Reported Mar 13 4:00 pm — Mar 28 4:30 pm, Shanghai. Weather by CustomWeather, © 2020

Note: Actual official high and low records may vary slightly from our data, if they occured in-between our weather recording intervals... More about our weather records

Shanghai Weather History for the Previous 24 Hours

Scroll right to see more
 ConditionsComfort  
Time TempWeatherWind HumidityBarometerVisibility
4:30 pm
Sat, Mar 28
48 °FScattered clouds.13 mph71%30.21 "HgN/A
4:00 pm48 °FScattered clouds.13 mph71%30.24 "HgN/A
3:30 pm48 °FScattered clouds.13 mph71%30.24 "HgN/A
3:00 pm48 °FScattered clouds.10 mph71%30.24 "HgN/A
2:30 pm46 °FPartly sunny.8 mph82%30.24 "HgN/A
2:00 pm46 °FScattered clouds.8 mph82%30.24 "HgN/A
1:30 pm45 °FLight rain. Partly sunny.13 mph87%30.24 "HgN/A
1:00 pm45 °FLight rain. Partly sunny.13 mph87%30.24 "HgN/A
12:30 pm45 °FLight rain. Partly sunny.13 mph87%30.27 "HgN/A
12:00 pm45 °FLight rain. Partly sunny.13 mph87%30.27 "HgN/A
11:30 am45 °FLight rain. Partly sunny.13 mph87%30.27 "HgN/A
10:30 am43 °FLight rain. Partly sunny.10 mph93%30.30 "HgN/A
10:00 am43 °FLight rain. Partly sunny.10 mph87%30.30 "HgN/A
9:30 am43 °FLight rain. Partly sunny.10 mph87%30.30 "HgN/A
9:00 am41 °FLight rain. Partly sunny.15 mph93%30.30 "HgN/A
8:30 am43 °FLight rain. Partly sunny.15 mph87%30.30 "HgN/A
8:00 am43 °FLight rain. Partly sunny.13 mph87%30.27 "HgN/A
7:30 am43 °FLight rain. Partly sunny.13 mph93%30.27 "HgN/A
7:00 am43 °FLight rain. Partly sunny.13 mph93%30.24 "HgN/A
6:30 am43 °FLight rain. Partly sunny.10 mph93%30.24 "HgN/A
6:00 am45 °FLight rain. Partly sunny.10 mph87%30.21 "HgN/A
5:30 am45 °FLight rain. Passing clouds.10 mph87%30.18 "HgN/A
5:00 am43 °FLight rain. Passing clouds.8 mph87%30.18 "HgN/A
4:30 am43 °FLight rain. Passing clouds.10 mph87%30.18 "HgN/A
4:00 am43 °FLight rain. Passing clouds.10 mph93%30.18 "HgN/A
3:30 am43 °FLight rain. Passing clouds.15 mph93%30.18 "HgN/A
3:00 am43 °FLight rain. Passing clouds.15 mph93%30.21 "HgN/A
2:30 am45 °FLight rain. Passing clouds.8 mph87%30.24 "HgN/A
2:00 am45 °FLight rain. Passing clouds.8 mph87%30.24 "HgN/A
1:30 am45 °FLight rain. Passing clouds.10 mph81%30.21 "HgN/A
1:00 am45 °FLight rain. Clear.10 mph81%30.21 "HgN/A
12:30 am46 °FLight rain. Clear.10 mph76%30.21 "HgN/A
12:00 am46 °FLight rain. Clear.10 mph76%30.21 "HgN/A
11:30 pm
Fri, Mar 27
46 °FLight rain. Clear.10 mph82%30.24 "HgN/A
11:00 pm46 °FLight rain. Clear.13 mph76%30.21 "HgN/A
10:30 pm48 °FLight rain. Clear.15 mph71%30.21 "HgN/A
10:00 pm48 °FLight rain. Clear.15 mph71%30.24 "HgN/A
9:30 pm48 °FLight rain. Clear.13 mph71%30.24 "HgN/A
9:00 pm50 °FClear.13 mph58%30.24 "Hg10 mi
8:30 pm50 °FPassing clouds.13 mph58%30.21 "HgN/A
8:00 pm50 °FClear.15 mph58%30.18 "Hg10 mi
7:30 pm50 °FClear.17 mph58%30.18 "Hg10 mi
7:00 pm50 °FClear.17 mph58%30.18 "Hg10 mi
6:30 pm50 °FClear.17 mph62%30.18 "Hg10 mi
6:00 pm52 °FSunny.17 mph54%30.18 "Hg10 mi
5:30 pm52 °FSunny.17 mph54%30.18 "Hg10 mi
5:00 pm52 °FSunny.17 mph62%30.18 "Hg10 mi
Weather by CustomWeather, © 2020

See weather overview

Advertising